WA3NOA-2 Weather Reports


time (UTC)temp
C
wind
direction
speed
KPH
gust
KPH
rain 1hr
cm
rain 24hr
cm
rain mn
cm
humidity
%
barometer
mb
20260510104706 10 0 0.0 0.0 0.00 0.30 0.00 96 1005.8
20260510104206 10 0 0.0 0.0 0.00 0.30 0.00 96 1005.9
20260510103706 10 0 0.0 0.0 0.00 0.30 0.00 96 1005.9
20260510103307 10 0 0.0 0.0 0.00 0.30 0.00 96 1005.8
20260510103206 10 0 0.0 0.0 0.00 0.30 0.00 96 1005.7
20260510102706 10 0 0.0 0.0 0.00 0.30 0.00 96 1005.6
20260510102206 10 0 0.0 0.0 0.00 0.30 0.00 96 1005.5
20260510101807 10 0 0.0 0.0 0.00 0.30 0.00 96 1005.5
20260510101706 10 0 0.0 0.0 0.00 0.30 0.00 96 1005.6
20260510101206 10 0 0.0 0.0 0.00 0.30 0.00 96 1005.4
20260510100706 10 0 0.0 0.0 0.00 0.30 0.00 95 1005.4
20260510100307 10 0 0.0 0.0 0.00 0.30 0.00 95 1005.3
20260510100207 10 0 0.0 0.0 0.00 0.30 0.00 95 1005.2
20260510095707 10 0 0.0 0.0 0.00 0.30 0.00 95 1005.3
20260510095207 9 0 0.0 0.0 0.00 0.30 0.00 96 1005.3
20260510094809 9 0 0.0 0.0 0.00 0.30 0.00 96 1005.3
20260510094707 9 0 0.0 0.0 0.00 0.30 0.00 96 1005.4
20260510094207 9 0 0.0 0.0 0.00 0.30 0.00 95 1005.3
20260510093707 9 0 0.0 0.0 0.00 0.30 0.00 95 1005.3
20260510093308 9 0 0.0 0.0 0.00 0.30 0.00 95 1005.1
20260510093207 9 0 0.0 0.0 0.00 0.30 0.00 95 1005.0
20260510092707 9 0 0.0 0.0 0.00 0.30 0.00 95 1005.2
20260510092207 9 0 0.0 0.0 0.00 0.30 0.00 95 1005.2
20260510091808 9 0 0.0 0.0 0.00 0.30 0.00 95 1005.0
20260510091707 9 0 0.0 0.0 0.00 0.30 0.00 95 1005.0
20260510091207 9 0 0.0 3.2 0.00 0.30 0.00 95 1004.8
20260510090707 9 0 0.0 3.2 0.00 0.30 0.00 95 1005.1
20260510090308 9 0 0.0 1.6 0.00 0.30 0.00 95 1005.1
20260510090207 9 0 0.0 1.6 0.00 0.30 0.00 95 1005.1
20260510085707 9 0 0.0 0.0 0.00 0.30 0.00 95 1005.1
20260510085207 9 0 0.0 1.6 0.00 0.30 0.00 95 1005.2
20260510084808 9 0 0.0 4.8 0.00 0.30 0.00 95 1005.1
20260510084707 9 125 1.6 4.8 0.00 0.30 0.00 95 1005.1
20260510084207 9 0 0.0 0.0 0.00 0.30 0.00 95 1005.5
20260510083707 8 126 1.6 3.2 0.00 0.30 0.00 95 1005.1
20260510083309 8 0 0.0 1.6 0.00 0.30 0.00 95 1005.4
20260510083207 8 0 0.0 1.6 0.00 0.30 0.00 95 1005.4
20260510082707 8 0 0.0 0.0 0.00 0.30 0.00 95 1005.0
20260510082207 8 0 0.0 0.0 0.00 0.30 0.00 95 1005.0
20260510081808 8 0 0.0 1.6 0.00 0.30 0.00 95 1005.5
20260510081707 8 0 0.0 1.6 0.00 0.30 0.00 94 1005.5
20260510081207 8 0 0.0 1.6 0.00 0.30 0.00 94 1005.2
20260510080707 8 30 1.6 8.0 0.00 0.30 0.00 94 1005.3
20260510080308 8 0 0.0 1.6 0.00 0.30 0.00 94 1005.0
20260510080207 8 0 0.0 0.0 0.00 0.30 0.00 94 1004.7
20260510075707 8 0 0.0 0.0 0.00 0.30 0.00 94 1004.6
20260510075207 8 0 0.0 0.0 0.00 0.30 0.00 94 1004.6
20260510074808 8 0 0.0 0.0 0.00 0.30 0.00 94 1004.6
20260510074707 8 0 0.0 0.0 0.00 0.30 0.00 94 1004.5
20260510074207 8 0 0.0 0.0 0.00 0.30 0.00 94 1004.6
20260510073707 9 0 0.0 0.0 0.00 0.30 0.00 94 1004.6
20260510073308 9 0 0.0 0.0 0.00 0.30 0.00 94 1004.6
20260510073207 9 0 0.0 0.0 0.00 0.30 0.00 94 1004.5
20260510072706 9 0 0.0 0.0 0.00 0.30 0.00 94 1004.5
20260510072206 9 0 0.0 0.0 0.00 0.30 0.00 94 1004.6
20260510071808 9 0 0.0 0.0 0.00 0.30 0.00 94 1004.6
20260510071706 9 0 0.0 0.0 0.00 0.30 0.00 94 1004.6
20260510071206 9 0 0.0 0.0 0.00 0.30 0.00 94 1004.6
20260510070706 9 0 0.0 1.6 0.00 0.30 0.00 94 1004.6
20260510070308 9 0 0.0 0.0 0.00 0.30 0.00 94 1004.5
20260510070206 10 0 0.0 0.0 0.00 0.30 0.00 94 1004.4
20260510065706 10 0 0.0 0.0 0.00 0.30 0.00 94 1004.4
20260510065206 10 0 0.0 0.0 0.00 0.30 0.00 94 1004.4
20260510064808 10 0 0.0 0.0 0.00 0.30 0.00 94 1004.4
20260510064706 10 0 0.0 0.0 0.00 0.30 0.00 94 1004.3
20260510064206 10 0 0.0 0.0 0.00 0.30 0.00 94 1004.3
20260510063706 10 0 0.0 0.0 0.00 0.30 0.00 94 1004.2
20260510063308 10 0 0.0 0.0 0.00 0.30 0.00 94 1004.0
20260510063206 10 0 0.0 0.0 0.00 0.30 0.00 94 1004.0
20260510062706 10 0 0.0 0.0 0.00 0.30 0.00 94 1004.0
20260510062206 10 0 0.0 0.0 0.00 0.30 0.00 94 1003.9
20260510061808 10 0 0.0 0.0 0.00 0.30 0.00 94 1004.0
20260510061706 10 0 0.0 0.0 0.00 0.30 0.00 94 1004.0
20260510061206 10 0 0.0 0.0 0.00 0.30 0.00 94 1004.0
20260510060706 10 0 0.0 0.0 0.00 0.30 0.00 94 1004.0
20260510060308 10 0 0.0 0.0 0.00 0.30 0.00 94 1004.0
20260510060206 10 0 0.0 0.0 0.00 0.30 0.00 94 1004.0
20260510055706 10 0 0.0 0.0 0.00 0.30 0.00 94 1004.2
20260510055206 10 0 0.0 0.0 0.00 0.30 0.00 94 1004.3
20260510054808 10 0 0.0 0.0 0.00 0.30 0.00 94 1004.3
20260510054706 10 0 0.0 0.0 0.00 0.30 0.00 94 1004.2
20260510054206 10 0 0.0 0.0 0.00 0.30 0.00 94 1004.3
20260510053706 10 0 0.0 1.6 0.00 0.30 0.00 94 1004.3
20260510053308 10 0 0.0 0.0 0.00 0.30 0.00 94 1004.4
20260510053206 10 0 0.0 0.0 0.00 0.30 0.00 94 1004.4
20260510052706 10 0 0.0 0.0 0.00 0.30 0.00 94 1004.5
20260510052206 10 0 0.0 0.0 0.00 0.30 0.00 94 1004.5
20260510051808 10 0 0.0 0.0 0.00 0.30 0.00 94 1004.5
20260510051706 10 0 0.0 0.0 0.00 0.30 0.00 94 1004.5
20260510051206 10 0 0.0 0.0 0.00 0.30 0.00 94 1004.5
20260510050706 10 0 0.0 0.0 0.00 0.30 0.00 94 1004.4
20260510050308 10 0 0.0 0.0 0.00 0.30 0.00 94 1004.5
20260510050206 10 0 0.0 0.0 0.00 0.30 0.00 94 1004.4
20260510045706 10 0 0.0 0.0 0.00 0.30 0.00 94 1004.6
20260510045206 10 0 0.0 0.0 0.00 0.30 0.00 93 1004.5
20260510044808 10 0 0.0 0.0 0.00 0.30 0.00 93 1004.6
20260510044706 10 0 0.0 0.0 0.00 0.30 0.00 93 1004.6
20260510044206 10 0 0.0 0.0 0.00 0.30 0.00 93 1004.6
20260510043706 10 0 0.0 0.0 0.00 0.30 0.00 93 1004.7
20260510043308 10 0 0.0 0.0 0.00 0.30 0.00 93 1004.7
20260510043206 10 0 0.0 0.0 0.00 0.30 0.00 93 1004.8
20260510042706 10 0 0.0 0.0 0.00 0.30 0.00 93 1004.7
20260510042206 10 0 0.0 0.0 0.00 0.30 0.00 93 1004.8
20260510041808 10 0 0.0 0.0 0.00 0.30 0.00 93 1004.7
20260510041706 10 0 0.0 0.0 0.00 0.30 0.00 93 1004.7
20260510041206 10 0 0.0 0.0 0.00 0.30 0.00 93 1004.7
20260510040706 10 0 0.0 0.0 0.00 0.30 0.00 93 1004.7
20260510040308 10 0 0.0 0.0 0.00 0.30 0.00 93 1004.8
20260510040206 10 0 0.0 0.0 0.00 0.30 0.00 93 1004.8
20260510035706 10 0 0.0 0.0 0.00 0.30 0.30 93 1004.8
20260510035206 10 0 0.0 0.0 0.00 0.30 0.30 93 1004.8
20260510034808 10 0 0.0 0.0 0.00 0.30 0.30 92 1004.8
20260510034706 10 0 0.0 0.0 0.00 0.30 0.30 92 1004.8
20260510034206 10 0 0.0 0.0 0.00 0.30 0.30 92 1004.7
20260510033706 10 0 0.0 0.0 0.00 0.30 0.30 92 1004.8
20260510033308 10 0 0.0 0.0 0.00 0.30 0.30 92 1004.7
20260510033206 10 0 0.0 0.0 0.00 0.30 0.30 92 1004.7
20260510032706 10 0 0.0 0.0 0.00 0.30 0.30 92 1004.6
20260510032206 10 0 0.0 0.0 0.00 0.30 0.30 92 1004.5
20260510031808 10 0 0.0 0.0 0.00 0.30 0.30 92 1004.5
20260510031706 10 0 0.0 0.0 0.00 0.30 0.30 92 1004.4
20260510031206 10 0 0.0 0.0 0.00 0.30 0.30 92 1004.5
20260510030706 10 0 0.0 0.0 0.00 0.30 0.30 92 1004.5
20260510030308 10 0 0.0 0.0 0.00 0.30 0.30 92 1004.4
20260510030206 10 0 0.0 0.0 0.00 0.30 0.30 92 1004.4
20260510025706 10 0 0.0 0.0 0.00 0.30 0.30 93 1004.4
20260510025206 10 0 0.0 0.0 0.00 0.30 0.30 93 1004.3
20260510024808 10 0 0.0 0.0 0.00 0.30 0.30 92 1004.3
20260510024706 10 0 0.0 0.0 0.00 0.30 0.30 92 1004.3
20260510024206 10 0 0.0 0.0 0.00 0.30 0.30 92 1004.1
20260510023706 11 0 0.0 0.0 0.00 0.30 0.30 92 1004.3
20260510023307 11 0 0.0 0.0 0.00 0.30 0.30 92 1004.3
20260510023206 11 0 0.0 0.0 0.00 0.30 0.30 92 1004.4
20260510022706 11 0 0.0 0.0 0.00 0.30 0.30 92 1004.4
20260510022206 11 0 0.0 0.0 0.00 0.30 0.30 92 1004.3
20260510021808 11 0 0.0 0.0 0.00 0.30 0.30 92 1004.3
20260510021706 11 0 0.0 0.0 0.00 0.30 0.30 92 1004.3
20260510021206 11 0 0.0 0.0 0.00 0.30 0.30 92 1004.4
20260510020706 11 0 0.0 0.0 0.00 0.30 0.30 92 1004.1
20260510020308 11 0 0.0 0.0 0.00 0.30 0.30 92 1004.2
20260510020206 11 0 0.0 0.0 0.00 0.30 0.30 92 1004.2
20260510015706 11 0 0.0 0.0 0.00 0.30 0.30 91 1004.1
20260510015206 11 0 0.0 0.0 0.00 0.30 0.30 91 1004.1
20260510014808 11 0 0.0 0.0 0.00 0.30 0.30 91 1004.1
20260510014706 11 0 0.0 0.0 0.00 0.30 0.30 91 1004.1
20260510014206 11 0 0.0 0.0 0.00 0.30 0.30 91 1004.0
20260510013706 11 0 0.0 0.0 0.00 0.30 0.30 91 1004.0
20260510013308 11 0 0.0 0.0 0.00 0.30 0.30 91 1004.1
20260510013206 11 0 0.0 0.0 0.00 0.30 0.30 91 1004.1
20260510012706 11 0 0.0 0.0 0.00 0.30 0.30 91 1004.1
20260510012206 11 0 0.0 0.0 0.00 0.30 0.30 91 1004.0
20260510011807 11 0 0.0 0.0 0.00 0.30 0.30 91 1003.9
20260510011706 11 0 0.0 0.0 0.00 0.30 0.30 91 1004.0
20260510011206 11 0 0.0 0.0 0.00 0.30 0.30 91 1003.9
20260510010706 11 0 0.0 0.0 0.00 0.30 0.30 91 1003.8
20260510010307 11 0 0.0 0.0 0.00 0.30 0.30 91 1003.8
20260510010206 11 0 0.0 0.0 0.00 0.30 0.30 91 1003.8
20260510005706 11 0 0.0 0.0 0.00 0.30 0.30 91 1003.8
20260510005206 11 0 0.0 0.0 0.00 0.30 0.30 91 1003.7
20260510004808 12 0 0.0 0.0 0.00 0.30 0.30 91 1003.7
20260510004706 12 0 0.0 0.0 0.00 0.30 0.30 91 1003.7
20260510004206 12 0 0.0 0.0 0.00 0.30 0.30 91 1003.7
20260510003706 12 0 0.0 0.0 0.00 0.30 0.30 91 1003.6
20260510003308 12 0 0.0 0.0 0.00 0.30 0.30 91 1003.5
20260510003206 12 0 0.0 0.0 0.00 0.30 0.30 91 1003.5
20260510002706 12 0 0.0 0.0 0.00 0.30 0.30 91 1003.4
20260510002206 12 0 0.0 0.0 0.00 0.30 0.30 91 1003.5
20260510001807 12 0 0.0 0.0 0.00 0.30 0.30 91 1003.5
20260510001706 12 0 0.0 0.0 0.00 0.30 0.30 91 1003.5
20260510001206 12 0 0.0 0.0 0.00 0.30 0.30 91 1003.6
20260510000706 12 0 0.0 0.0 0.00 0.30 0.30 91 1003.5
20260510000308 12 0 0.0 0.0 0.00 0.30 0.30 91 1003.5
20260510000206 12 0 0.0 0.0 0.00 0.30 0.30 91 1003.6
20260509235706 12 0 0.0 0.0 0.00 0.30 0.30 91 1003.5
20260509235206 12 0 0.0 0.0 0.00 0.30 0.30 91 1003.5
20260509234807 12 0 0.0 0.0 0.00 0.30 0.30 91 1003.5
20260509234706 12 0 0.0 0.0 0.00 0.30 0.30 91 1003.5
20260509234206 13 0 0.0 0.0 0.00 0.30 0.30 91 1003.4
20260509233706 13 0 0.0 0.0 0.00 0.30 0.30 91 1003.5
20260509233308 12 0 0.0 0.0 0.00 0.30 0.30 91 1003.6
20260509233206 13 0 0.0 0.0 0.00 0.30 0.30 91 1003.5
20260509232706 13 0 0.0 0.0 0.00 0.30 0.30 91 1003.5
20260509232206 13 0 0.0 0.0 0.00 0.30 0.30 91 1003.5
20260509231807 13 0 0.0 0.0 0.00 0.30 0.30 91 1003.5
20260509231706 13 0 0.0 0.0 0.00 0.30 0.30 91 1003.5
20260509231206 13 0 0.0 0.0 0.00 0.30 0.30 91 1003.6
20260509230706 13 0 0.0 0.0 0.00 0.30 0.30 91 1003.7
20260509230307 13 0 0.0 0.0 0.00 0.28 0.30 91 1003.6
20260509230206 13 0 0.0 0.0 0.00 0.28 0.30 91 1003.6
20260509225706 13 0 0.0 0.0 0.00 0.28 0.28 91 1003.5
20260509225206 13 0 0.0 3.2 0.00 0.28 0.28 91 1003.5
20260509224807 13 0 0.0 0.0 0.00 0.28 0.28 91 1003.5
20260509224706 13 0 0.0 0.0 0.00 0.28 0.28 91 1003.5
20260509224206 13 142 1.6 4.8 0.00 0.28 0.28 91 1003.5
20260509223706 13 0 0.0 0.0 0.00 0.28 0.28 91 1003.6
20260509223307 13 0 0.0 0.0 0.00 0.28 0.28 91 1003.6
20260509223206 13 0 0.0 0.0 0.00 0.28 0.28 91 1003.6
20260509222706 13 0 0.0 3.2 0.00 0.28 0.28 91 1003.5
20260509222206 13 0 0.0 1.6 0.00 0.28 0.28 92 1003.5
20260509221807 13 0 0.0 3.2 0.00 0.28 0.28 92 1003.5
20260509221706 13 126 3.2 3.2 0.00 0.28 0.28 92 1003.6
20260509221206 13 0 0.0 3.2 0.00 0.28 0.28 92 1003.6
20260509220706 13 0 0.0 1.6 0.00 0.28 0.28 92 1003.5
20260509220307 13 126 1.6 3.2 0.00 0.28 0.28 92 1003.5
20260509220206 13 126 1.6 3.2 0.00 0.28 0.28 92 1003.5
20260509215706 13 0 0.0 3.2 0.00 0.28 0.28 92 1003.5
20260509215206 13 146 1.6 8.0 0.00 0.28 0.28 93 1003.5
20260509214807 13 144 1.6 6.4 0.00 0.28 0.28 93 1003.5
20260509214706 13 142 4.8 4.8 0.00 0.28 0.28 93 1003.4
20260509214207 13 0 0.0 4.8 0.00 0.28 0.28 93 1003.4
20260509213707 13 109 4.8 4.8 0.00 0.28 0.28 93 1003.3
20260509213308 13 101 1.6 3.2 0.00 0.28 0.28 93 1003.4
20260509213207 13 0 0.0 3.2 0.00 0.28 0.28 93 1003.4
20260509212707 13 0 0.0 0.0 0.00 0.28 0.28 93 1003.5
20260509212207 13 0 0.0 0.0 0.00 0.28 0.28 92 1003.4
20260509211808 13 0 0.0 1.6 0.00 0.28 0.28 93 1003.4
20260509211707 13 0 0.0 1.6 0.00 0.28 0.28 92 1003.5
20260509211207 13 0 0.0 0.0 0.00 0.28 0.28 92 1003.6
20260509210707 13 0 0.0 0.0 0.00 0.28 0.28 92 1003.6
20260509210308 13 0 0.0 1.6 0.00 0.28 0.28 92 1003.7
20260509210207 13 0 0.0 0.0 0.00 0.28 0.28 92 1003.7
20260509205707 13 101 3.2 3.2 0.00 0.28 0.28 92 1003.5
20260509205207 13 0 0.0 0.0 0.00 0.28 0.28 92 1003.6
20260509204808 13 0 0.0 0.0 0.00 0.28 0.28 92 1003.6
20260509204707 13 0 0.0 0.0 0.00 0.28 0.28 92 1003.6
20260509204207 13 0 0.0 3.2 0.00 0.28 0.28 92 1003.6
20260509203707 13 0 0.0 1.6 0.00 0.28 0.28 92 1003.6
20260509203308 13 0 0.0 0.0 0.00 0.28 0.28 93 1003.7
20260509203207 13 0 0.0 0.0 0.00 0.28 0.28 93 1003.7
20260509202707 13 0 0.0 0.0 0.00 0.28 0.28 94 1003.7
20260509202207 13 0 0.0 0.0 0.00 0.28 0.28 93 1003.6
20260509201808 12 0 0.0 0.0 0.00 0.28 0.28 92 1003.5
20260509201707 12 0 0.0 0.0 0.00 0.28 0.28 92 1003.5
20260509201207 12 0 0.0 0.0 0.00 0.28 0.28 92 1003.6
20260509200707 13 0 0.0 3.2 0.00 0.28 0.28 93 1003.4
20260509200308 12 0 0.0 1.6 0.00 0.28 0.28 93 1003.5
20260509200207 12 0 0.0 1.6 0.00 0.28 0.28 93 1003.5
20260509195707 12 128 3.2 4.8 0.00 0.25 0.25 93 1003.4
20260509195207 12 0 0.0 0.0 0.03 0.25 0.25 93 1003.7
20260509194808 13 138 1.6 1.6 0.03 0.25 0.25 93 1003.6
20260509194707 13 0 0.0 0.0 0.03 0.25 0.25 93 1003.7
20260509194207 12 0 0.0 0.0 0.03 0.25 0.25 93 1003.7
20260509193707 12 0 0.0 1.6 0.03 0.25 0.25 93 1003.7
20260509193308 12 0 0.0 1.6 0.03 0.25 0.25 93 1003.7
20260509193207 12 0 0.0 1.6 0.03 0.25 0.25 93 1003.8
20260509192707 12 0 0.0 0.0 0.03 0.25 0.25 93 1003.9
20260509192207 12 0 0.0 0.0 0.03 0.25 0.25 94 1004.1
20260509191808 12 0 0.0 0.0 0.03 0.25 0.25 93 1004.2
20260509191707 12 0 0.0 0.0 0.03 0.25 0.25 93 1004.2
20260509191207 12 0 0.0 0.0 0.03 0.25 0.25 93 1004.2
20260509190706 12 0 0.0 0.0 0.03 0.25 0.25 93 1004.2
20260509190308 12 0 0.0 0.0 0.03 0.25 0.25 93 1004.4
20260509190207 12 0 0.0 0.0 0.03 0.25 0.25 93 1004.4
20260509185707 12 0 0.0 0.0 0.03 0.25 0.25 93 1004.5
20260509185206 12 0 0.0 0.0 0.00 0.23 0.23 93 1004.5
20260509184808 12 0 0.0 1.6 0.00 0.23 0.23 93 1004.6
20260509184706 12 0 0.0 1.6 0.00 0.23 0.23 93 1004.7
20260509184206 12 0 0.0 0.0 0.00 0.23 0.23 93 1004.6
20260509183706 12 0 0.0 0.0 0.00 0.23 0.23 93 1004.8
20260509183308 12 0 0.0 0.0 0.03 0.23 0.23 93 1004.9
20260509183206 12 0 0.0 0.0 0.03 0.23 0.23 93 1004.9
20260509182706 12 0 0.0 1.6 0.03 0.23 0.23 93 1004.8
20260509182206 12 0 0.0 0.0 0.08 0.23 0.23 93 1004.9
20260509181808 12 0 0.0 0.0 0.08 0.23 0.23 93 1004.9
20260509181706 12 0 0.0 0.0 0.08 0.23 0.23 93 1005.0
20260509181206 12 0 0.0 0.0 0.08 0.23 0.23 93 1004.9
20260509180706 12 0 0.0 1.6 0.08 0.23 0.23 93 1004.9
20260509180308 12 0 0.0 0.0 0.08 0.23 0.23 93 1004.9
20260509180206 12 0 0.0 0.0 0.08 0.23 0.23 93 1004.9
20260509175706 12 0 0.0 0.0 0.08 0.23 0.23 92 1005.1
20260509175206 12 0 0.0 0.0 0.08 0.20 0.20 92 1005.2
20260509174808 12 0 0.0 0.0 0.08 0.20 0.20 92 1005.0
20260509174706 12 0 0.0 0.0 0.08 0.20 0.20 92 1005.1
20260509174206 12 0 0.0 0.0 0.08 0.20 0.20 92 1005.2
20260509173706 12 0 0.0 1.6 0.08 0.20 0.20 92 1005.2
20260509173308 12 0 0.0 3.2 0.05 0.18 0.18 91 1005.2
20260509173206 12 205 1.6 3.2 0.05 0.18 0.18 91 1005.2
20260509172706 12 0 0.0 0.0 0.05 0.18 0.18 91 1005.2
20260509172206 12 0 0.0 0.0 0.00 0.15 0.18 91 1005.1
20260509171808 12 0 0.0 0.0 0.00 0.15 0.15 91 1005.1
20260509171706 12 0 0.0 0.0 0.00 0.15 0.15 90 1005.1
20260509171206 13 0 0.0 0.0 0.00 0.13 0.13 91 1005.1
20260509170706 13 0 0.0 0.0 0.00 0.13 0.13 91 1004.9
20260509170308 13 0 0.0 0.0 0.03 0.13 0.13 91 1004.9
20260509170206 13 0 0.0 0.0 0.03 0.13 0.13 91 1004.8
20260509165706 13 0 0.0 0.0 0.03 0.13 0.13 91 1004.8
20260509165206 13 0 0.0 0.0 0.03 0.13 0.13 91 1004.7
20260509164809 13 0 0.0 0.0 0.05 0.13 0.13 91 1004.8
20260509164706 13 0 0.0 0.0 0.05 0.13 0.13 91 1004.7
20260509164206 13 0 0.0 0.0 0.08 0.13 0.13 91 1004.8
20260509163706 13 0 0.0 0.0 0.08 0.13 0.13 91 1004.7
20260509163309 13 0 0.0 0.0 0.08 0.13 0.13 91 1004.8
20260509163206 13 0 0.0 0.0 0.08 0.13 0.13 91 1004.8
20260509162706 13 0 0.0 0.0 0.10 0.13 0.13 92 1004.8
20260509162206 13 0 0.0 0.0 0.10 0.13 0.13 91 1005.0
20260509161808 13 0 0.0 0.0 0.10 0.13 0.13 90 1005.1
20260509161706 13 0 0.0 0.0 0.10 0.13 0.13 90 1005.1
20260509161206 13 0 0.0 0.0 0.10 0.13 0.13 91 1005.1
20260509160706 13 0 0.0 0.0 0.13 0.13 0.13 90 1005.2
20260509160308 13 0 0.0 0.0 0.10 0.10 0.10 91 1005.4
20260509160206 13 0 0.0 0.0 0.10 0.10 0.10 91 1005.4
20260509155706 13 0 0.0 0.0 0.10 0.10 0.10 91 1005.6
20260509155206 13 0 0.0 0.0 0.10 0.10 0.10 90 1005.8
20260509154808 13 0 0.0 3.2 0.08 0.08 0.08 90 1005.9
20260509154706 13 0 0.0 3.2 0.08 0.08 0.08 90 1005.9
20260509154206 14 0 0.0 0.0 0.05 0.05 0.08 89 1005.9
20260509153706 14 0 0.0 1.6 0.05 0.05 0.05 89 1005.9
20260509153308 14 0 0.0 1.6 0.05 0.05 0.05 89 1005.9
20260509153206 14 0 0.0 1.6 0.05 0.05 0.05 89 1005.9
20260509152706 14 0 0.0 0.0 0.03 0.03 0.05 88 1006.0
20260509152206 14 0 0.0 4.8 0.03 0.03 0.03 88 1005.9
20260509151808 14 0 0.0 3.2 0.03 0.03 0.03 87 1005.8
20260509151706 14 0 0.0 3.2 0.03 0.03 0.03 87 1005.8
20260509151206 14 0 0.0 1.6 0.03 0.03 0.03 86 1005.9
20260509150706 15 0 0.0 4.8 0.00 0.00 0.00 85 1006.0
20260509150308 15 0 0.0 8.0 0.00 0.00 0.00 84 1005.8
20260509150206 15 240 3.2 8.0 0.00 0.00 0.00 85 1005.8
20260509145706 15 0 0.0 4.8 0.00 0.00 0.00 83 1005.6
20260509145206 15 0 0.0 3.2 0.00 0.00 0.00 82 1005.8
20260509144808 15 0 0.0 9.7 0.00 0.00 0.00 80 1005.8
20260509144706 15 240 1.6 9.7 0.00 0.00 0.00 80 1005.9
20260509144206 15 240 1.6 6.4 0.00 0.00 0.00 80 1005.7
20260509143706 15 254 3.2 6.4 0.00 0.00 0.00 77 1005.8
20260509143308 15 0 0.0 16.1 0.00 0.00 0.00 76 1005.7
20260509143206 15 266 3.2 16.1 0.00 0.00 0.00 76 1005.7
20260509142706 15 231 6.4 12.9 0.00 0.00 0.00 76 1005.5
20260509142206 15 0 0.0 11.3 0.00 0.00 0.00 77 1005.6
20260509141807 15 261 4.8 9.7 0.00 0.00 0.00 77 1005.5
20260509141706 15 252 1.6 9.7 0.00 0.00 0.00 77 1005.5
20260509141206 15 270 3.2 12.9 0.00 0.00 0.00 77 1005.4
20260509140706 15 260 4.8 8.0 0.00 0.00 0.00 77 1005.3
20260509140308 15 0 0.0 12.9 0.00 0.00 0.00 77 1005.3
20260509140206 15 0 0.0 12.9 0.00 0.00 0.00 77 1005.2
20260509135706 15 0 0.0 6.4 0.00 0.00 0.00 77 1005.2
20260509135206 15 231 4.8 14.5 0.00 0.00 0.00 78 1005.2
20260509134808 15 246 8.0 8.0 0.00 0.00 0.00 78 1005.3
20260509134706 15 269 4.8 8.0 0.00 0.00 0.00 78 1005.1
20260509134206 14 252 1.6 11.3 0.00 0.00 0.00 79 1005.2
20260509133706 14 258 11.3 12.9 0.00 0.00 0.00 79 1005.3
20260509133308 14 247 4.8 11.3 0.00 0.00 0.00 79 1005.1
20260509133206 14 288 3.2 11.3 0.00 0.00 0.00 79 1005.2
20260509132706 14 267 1.6 6.4 0.00 0.00 0.00 81 1005.2
20260509132206 13 247 1.6 9.7 0.00 0.00 0.00 80 1005.3
20260509131807 13 0 0.0 11.3 0.00 0.00 0.00 80 1005.1
20260509131706 13 266 6.4 9.7 0.00 0.00 0.00 80 1005.1
20260509131206 13 254 3.2 9.7 0.00 0.00 0.00 81 1005.1
20260509130706 13 0 0.0 6.4 0.00 0.00 0.00 80 1005.2
20260509130307 13 281 3.2 4.8 0.00 0.00 0.00 81 1005.1
20260509130206 13 0 0.0 4.8 0.00 0.00 0.00 81 1005.2
20260509125706 13 259 11.3 11.3 0.00 0.00 0.00 81 1005.2
20260509125206 13 259 4.8 9.7 0.00 0.00 0.00 81 1005.2
20260509124807 13 255 8.0 8.0 0.00 0.00 0.00 81 1005.2
20260509124706 13 263 1.6 6.4 0.00 0.00 0.00 81 1005.2
20260509124206 13 0 0.0 3.2 0.00 0.00 0.00 82 1005.2
20260509123706 13 249 11.3 12.9 0.00 0.00 0.00 82 1005.3
20260509123307 13 258 1.6 6.4 0.00 0.00 0.00 82 1005.3
20260509123206 13 246 3.2 4.8 0.00 0.00 0.00 82 1005.3
20260509122706 12 262 1.6 4.8 0.00 0.00 0.00 82 1005.4
20260509122206 12 264 3.2 9.7 0.00 0.00 0.00 82 1005.2
20260509121808 12 0 0.0 11.3 0.00 0.00 0.00 83 1005.3
20260509121706 12 0 0.0 11.3 0.00 0.00 0.00 83 1005.2
20260509121206 12 0 0.0 4.8 0.00 0.00 0.00 83 1005.3
20260509120706 12 0 0.0 6.4 0.00 0.00 0.00 83 1005.3
20260509120307 12 223 1.6 12.9 0.00 0.00 0.00 83 1005.3
20260509120206 12 281 3.2 8.0 0.00 0.00 0.00 83 1005.3
20260509115706 12 267 3.2 4.8 0.00 0.00 0.00 83 1005.2
20260509115206 12 0 0.0 4.8 0.00 0.00 0.00 83 1005.1
20260509114807 12 0 0.0 9.7 0.00 0.00 0.00 83 1005.1
20260509114706 12 279 9.7 9.7 0.00 0.00 0.00 83 1005.1
20260509114206 12 265 4.8 6.4 0.00 0.00 0.00 83 1005.0
20260509113706 12 0 0.0 1.6 0.00 0.00 0.00 83 1005.1
20260509113308 12 0 0.0 4.8 0.00 0.00 0.00 83 1005.1
20260509113206 12 254 1.6 4.8 0.00 0.00 0.00 83 1005.1
20260509112706 12 248 6.4 6.4 0.00 0.00 0.00 83 1005.2
20260509112206 11 0 0.0 6.4 0.00 0.00 0.00 83 1005.1
20260509111807 11 0 0.0 4.8 0.00 0.00 0.00 83 1005.1
20260509111706 11 0 0.0 4.8 0.00 0.00 0.00 83 1005.0
20260509111206 11 0 0.0 3.2 0.00 0.00 0.00 83 1005.0
20260509110706 11 0 0.0 4.8 0.00 0.00 0.00 83 1005.0
20260509110307 11 0 0.0 12.9 0.00 0.00 0.00 83 1005.1
20260509110206 11 261 1.6 4.8 0.00 0.00 0.00 83 1005.1
20260509105706 11 0 0.0 0.0 0.00 0.00 0.00 83 1005.0
20260509105206 11 254 1.6 3.2 0.00 0.00 0.00 83 1004.9
20260509104808 11 254 1.6 1.6 0.00 0.00 0.00 82 1004.8